Showing default

YAOGAN-36 05B, 57454

Orbit data source: Space-Track

YAOGAN-36 05B, 57454 is a payload satellite owned by PLA GAD (CN) in LEO that was launched on Wed, 26 Jul 2023 UTC via a CHANG ZHENG 2D launch vehicle from the Xichang Space Center, China (XSC). Payload-class satellites include a variety of spacecraft equipped with specific instruments for various scientific and technological missions. These include communications satellites like Starlink; space stations such as the ISS; scientific satellites like the Hubble; Earth observation satellites from companies like Planet Labs, Umbra, and HawkEye 360; GPS; miniature CubeSats for education and research; and military/defense satellites.

Loading next visibility...
Identifier
57454, 2023-106C
Orbit
LEO
Country
Flag of CNCN / PRC
Related business
Manufacturer
SAST
Mission
Operational Defense Sigint
Bus & Motor
Unknown
Mass
~300 kg wet, ~300 kg dry
Launch date (UTC)
2023-07-26 (3 years ago)
Launch vehicle
CHANG ZHENG 2D
Launch site
Xichang Space Center, China (XSC)
Object type
Payload
Rocket body
Debris
Shape & HBR
Box + 2 Pan, 2.5 m
Radar Cross Section
11.063 m², Large (>1 m²)

Expand to show TLE details & history
Last TLE update: 1 day ago

TLE from 1 day ago
0 YAOGAN-36 05B
1 57454U 23106C   26172.12378297  .00004911  00000-0  24698-3 0  9991
2 57454  34.9941  56.0637 0001877 342.4097  17.6550 15.16636336161468
Epoch: 2026-06-21T02:58Z
TLE epoch observation values (Epoch: 2026-06-21T02:58:14.848Z)
Latitude
-0.00004°
Longitude
102.17321°
Altitude
513.692 km
Speed
7.61 km/s
True Right ascension
03h 44m 15s
True Declination
0° 00' 00"
Sunlit
Object was in daylight at epoch
Visualization orbit readout
Latitude
Unknown
Longitude
Unknown
Altitude
Unknown
Speed
Unknown
Apparent Right ascension
Unknown
Apparent Declination
Unknown
Sunlit
N/A
Visualization observer readout
Local Sidereal Time
21:32:07
Azimuth
Unknown
Elevation
Unknown
Doppler factor
Unknown
Orbital elements
Apogee altitude
520.552 km
Perigee altitude
517.963 km
Semi-major axis
6,897.394 km
Eccentricity
0.00019
Inclination
34.9941°
RAAN
56.0637°
Arg. of periapsis
342.4097°
True anomaly
17.66152°
Mean anomaly
17.655°
Eccentric anomaly
17.65826°
Mean motion
3.78892 °/min
Orbital period
95.01 mins
BSTAR
0.00024698
Loading maneuver chart data...
Computing Atmospheric mass density...
Loading historical data...
Loading historical data...
Loading historical data...
Loading historical data...
Loading historical data...
Loading historical data...
Loading historical data...
Other satellites on launch #106 in the year 2023 (2023-07-26 UTC)

Documentation

Showing up to 5 results
|